RH
42 43 42 42 43 44 45 45 45 45 45 45 45 45 45 45 46 47 53 53 48 46 42 37 37 33 29 29 27 24 23 28 30 28 27 25 24 23 26 36 47 51 53 55 58 59 59 58 58 58 60 61 63 65 68 64 59 60 57 50 49 49 47 47 49 55 60 61 60 62 61 55 51 49 48 47 47 48 50 54 55 55 58 61 64
40 42 43 44 44 44 45 46 46 45 46 46 45 46 46 47 47 47 51 53 49 48 45 39 36 33 29 27 27 26 22 24 27 28 28 25 24 25 25 29 36 44 49 53 57 61 59 59 58 56 57 57 59 63 66 65 64 65 65 59 54 50 50 50 52 54 60 63 62 63 62 61 60 56 54 54 53 53 53 54 54 55 58 61 63
39 42 43 45 45 45 46 47 47 48 49 48 48 47 48 48 48 49 53 53 50 46 42 38 36 33 30 26 24 25 23 22 25 28 29 25 23 24 24 27 32 39 46 51 57 59 57 58 59 56 56 55 56 60 61 62 64 64 66 67 63 57 53 51 50 52 55 58 58 58 57 61 64 63 63 63 60 60 60 59 57 55 56 58 59
39 42 43 45 46 46 46 46 47 49 50 50 50 49 49 48 48 55 60 58 53 47 41 37 36 34 31 28 25 24 23 22 25 28 27 25 23 23 25 26 30 38 43 46 52 56 55 56 58 56 56 56 56 57 57 57 61 62 63 66 66 66 63 56 51 50 50 51 53 54 54 58 63 65 67 68 65 63 62 61 60 58 57 56 55
40 42 43 44 45 45 45 44 46 48 49 48 48 48 49 49 48 54 59 59 53 45 40 37 35 36 35 31 25 21 20 21 24 26 25 26 25 24 25 26 29 36 40 42 46 52 54 54 55 57 57 57 56 55 55 56 58 58 58 62 64 67 68 64 59 56 52 50 50 51 52 56 61 64 68 70 70 65 61 60 60 60 59 58 56
41 41 41 42 43 44 44 44 45 47 46 45 46 46 47 48 47 50 55 56 51 43 40 39 37 39 38 33 26 20 19 21 22 24 25 26 28 28 26 28 30 34 38 41 43 45 49 51 53 57 57 56 55 53 54 55 56 56 56 58 60 63 67 67 65 62 58 54 53 53 54 56 59 62 64 66 69 66 61 58 58 58 58 59 59
39 39 40 41 41 42 42 43 44 44 43 42 43 42 43 44 43 45 47 50 51 44 39 40 41 39 38 35 27 20 21 22 22 25 27 26 28 32 31 29 29 30 33 36 38 39 41 44 48 53 55 55 56 56 55 53 53 55 55 56 57 59 62 64 63 63 61 60 59 59 60 60 62 67 68 65 65 62 58 54 53 54 54 54 55
37 38 39 40 41 41 41 42 43 42 42 42 42 40 40 41 40 41 41 47 52 45 41 43 42 38 34 34 29 22 23 25 26 29 30 29 29 34 35 33 31 29 30 32 33 36 37 37 40 45 49 52 54 55 53 52 54 55 54 54 55 56 57 59 58 59 62 63 64 64 64 65 68 72 72 69 68 65 60 54 51 51 50 50 50
38 39 40 40 41 41 41 41 41 41 42 42 42 41 40 39 38 37 35 39 42 42 46 45 42 38 30 31 29 22 24 27 29 31 30 30 31 33 35 35 35 33 32 32 31 33 35 35 37 38 39 41 44 46 46 48 50 53 55 55 53 53 54 55 55 57 60 62 64 65 65 67 70 73 72 71 71 70 66 61 58 55 53 52 51
40 41 42 43 43 42 41 42 42 42 42 41 41 40 39 37 33 32 33 33 33 38 45 43 43 42 32 31 29 22 26 28 27 29 29 32 35 33 33 33 35 35 34 35 34 34 34 35 36 34 33 33 33 32 34 37 39 45 52 53 52 52 52 53 54 55 56 57 59 60 60 63 69 72 72 71 70 68 67 66 65 64 62 60 57
41 43 45 45 45 44 44 46 45 43 43 42 41 38 35 32 30 31 32 31 31 32 34 36 40 40 31 31 31 25 26 27 28 30 30 34 36 34 35 34 33 33 34 34 36 37 37 37 38 38 38 36 33 32 34 38 40 41 43 45 49 50 50 51 52 52 53 54 54 56 59 63 68 70 69 70 70 66 65 65 65 67 68 67 63
42 44 46 47 47 47 48 48 46 44 42 41 39 36 31 29 29 31 32 30 30 30 30 31 33 33 29 28 29 28 26 25 28 33 32 33 34 35 38 38 34 32 32 31 32 34 36 39 42 43 44 44 41 40 40 42 46 44 40 42 43 44 47 49 49 51 53 53 51 53 58 61 64 64 63 67 68 66 67 67 65 68 72 72 69
42 45 46 47 47 48 48 48 45 42 41 39 35 31 28 28 29 30 31 31 31 30 30 31 32 32 31 29 28 28 27 25 28 34 36 34 33 32 36 40 38 33 30 29 30 31 32 35 38 39 40 42 42 41 39 38 41 40 38 39 39 40 43 46 46 48 50 51 49 51 55 57 59 59 59 61 63 64 67 68 65 67 72 76 74
42 44 45 46 47 48 49 47 45 44 40 36 31 28 28 29 29 31 31 31 32 33 33 35 36 35 35 33 31 29 27 26 28 33 37 36 34 31 32 38 40 35 31 31 31 31 32 34 35 35 33 33 34 36 35 35 35 36 36 38 40 40 41 43 45 46 49 52 51 49 51 54 55 55 53 55 59 62 64 66 66 66 70 75 77
41 42 43 44 46 47 48 47 47 44 38 33 31 31 31 30 31 34 35 36 38 39 41 43 43 42 41 39 38 35 33 32 33 34 36 35 35 34 33 36 38 34 34 37 34 31 34 37 38 38 35 33 32 32 33 34 34 34 33 34 35 36 36 38 41 45 48 51 49 47 47 47 47 48 47 48 53 58 60 61 63 65 67 69 71
37 38 39 41 44 46 47 47 47 42 35 33 33 34 34 34 36 38 40 43 47 50 53 54 55 54 49 46 45 44 43 44 43 40 38 38 39 39 39 39 41 38 38 41 37 33 37 40 41 42 41 39 36 35 34 33 33 32 31 31 30 27 26 28 31 35 38 39 39 38 37 36 36 36 35 35 38 43 47 51 55 60 65 68 68
34 35 37 39 42 46 47 47 45 39 33 33 34 36 37 38 41 43 46 51 55 60 62 60 60 60 55 51 49 49 50 51 50 46 43 42 42 44 44 43 44 41 39 39 36 34 38 39 41 42 42 40 37 36 35 32 32 31 28 28 27 23 21 20 22 24 25 27 28 27 27 27 26 25 26 26 27 29 31 35 40 45 51 57 63
31 33 35 36 40 44 46 47 43 36 33 34 35 37 39 42 45 48 53 58 61 64 65 61 58 56 55 53 51 51 53 53 53 52 48 46 44 44 45 42 42 40 36 36 34 34 37 38 38 39 40 41 39 36 35 34 34 34 32 31 30 28 24 22 22 22 23 23 23 23 23 23 22 22 23 23 23 24 24 25 27 29 31 35 41
29 31 33 34 37 41 45 46 40 33 33 35 36 38 42 46 50 53 57 61 59 59 61 60 54 50 51 53 51 48 50 51 53 54 51 47 45 44 44 40 39 38 35 35 35 34 34 35 36 37 38 40 40 37 36 37 38 39 39 38 37 35 31 29 27 26 26 25 24 24 24 23 22 21 21 21 20 21 21 21 21 21 21 22 23
28 29 31 32 35 38 43 43 37 32 34 36 37 41 46 52 54 54 55 56 54 52 53 51 47 44 45 48 48 44 42 44 46 49 50 48 45 43 42 41 41 40 38 36 37 35 34 35 38 40 41 42 44 43 43 43 43 42 42 41 41 41 40 38 36 35 33 32 31 30 29 28 26 24 23 21 20 20 20 20 20 20 20 19 19
28 28 28 31 33 36 41 40 33 31 33 36 40 44 51 56 55 52 51 50 47 45 45 43 41 43 43 44 46 44 42 41 40 43 46 48 47 45 44 43 42 42 41 40 40 39 39 40 43 46 47 48 49 50 50 50 48 47 46 45 44 45 46 46 45 45 44 42 40 38 37 35 33 31 28 25 23 23 22 22 22 22 21 21 21
27 26 27 30 32 35 37 34 29 30 34 38 43 49 54 55 52 50 47 44 41 41 41 40 41 44 46 47 48 48 47 46 44 43 44 46 48 48 48 47 48 48 45 43 43 43 43 44 45 49 50 51 51 51 52 51 49 48 48 47 47 46 45 46 47 47 47 46 45 44 43 42 40 37 34 31 28 26 24 23 23 22 22 22 22
26 26 27 30 31 34 34 29 28 31 36 40 45 51 53 52 50 47 43 40 39 40 40 40 41 45 49 50 50 51 51 51 51 49 46 47 47 48 48 47 49 50 47 45 44 43 44 45 46 47 49 50 50 51 52 51 48 46 46 46 48 48 47 44 43 44 45 46 45 45 45 45 44 42 39 36 33 30 27 25 23 22 21 22 23
24 25 28 31 31 33 31 26 26 31 36 42 46 49 51 50 48 43 39 39 39 40 41 40 41 45 49 50 50 52 52 51 53 53 50 49 47 48 48 45 44 45 43 43 45 44 44 45 46 46 48 49 51 51 52 51 49 47 45 44 44 47 49 47 44 42 42 42 42 42 44 45 46 45 43 40 37 35 32 30 27 24 22 22 22
24 24 27 31 32 32 29 24 26 31 37 42 45 47 49 49 45 40 39 39 38 40 41 41 42 45 48 50 51 52 52 52 52 53 53 51 48 47 47 45 43 42 41 42 44 45 46 47 47 47 48 50 50 52 51 50 48 48 47 45 43 44 48 50 48 42 39 40 41 42 43 46 47 48 47 45 41 38 35 34 33 31 28 26 25
23 24 27 30 31 32 28 23 26 32 37 42 44 45 49 49 42 38 39 38 38 40 41 42 43 45 48 50 52 54 54 54 52 51 52 54 53 50 46 43 42 40 40 41 43 47 49 50 50 50 51 52 52 53 53 52 51 50 49 46 44 45 47 50 50 46 43 44 44 43 44 45 46 47 49 49 46 41 38 36 35 34 33 32 30
20 23 26 29 30 31 28 23 26 33 37 40 43 45 49 47 41 37 37 37 37 39 41 43 45 46 48 49 51 53 54 55 55 52 51 52 55 55 51 47 45 44 43 44 47 49 50 51 51 51 53 55 56 56 55 54 54 54 52 48 46 46 47 49 50 49 49 49 47 45 42 42 42 44 46 48 48 45 41 38 35 34 34 33 32
18 20 24 28 30 31 28 24 26 33 36 38 42 45 47 44 39 37 36 36 37 38 40 43 45 47 49 50 51 53 54 55 56 55 52 50 50 54 55 53 52 52 52 53 53 53 52 51 52 53 55 57 58 57 57 57 56 55 53 50 49 47 47 49 49 49 51 54 52 48 43 42 43 44 45 47 48 48 46 42 37 34 33 33 33
19 19 22 25 28 30 28 24 27 32 34 36 41 45 45 41 37 36 36 36 37 38 40 42 43 46 49 50 52 53 53 53 55 56 56 53 50 50 53 55 54 55 57 57 57 57 56 56 57 59 60 61 61 59 57 55 53 52 52 51 50 50 50 49 49 50 52 55 54 50 48 48 48 47 47 47 48 50 50 47 43 38 34 33 33
20 19 19 23 26 28 27 25 27 31 33 35 40 44 43 38 35 36 37 37 37 39 40 41 42 45 48 51 53 54 53 52 52 53 55 56 54 50 51 54 55 54 56 57 57 58 57 58 60 62 63 63 62 60 57 53 51 50 50 51 52 53 53 51 50 52 54 55 56 54 54 54 53 51 49 49 51 52 53 52 49 45 41 37 35
21 19 19 21 24 26 26 26 28 31 32 34 39 44 42 36 35 37 38 37 38 39 40 40 42 44 48 52 55 56 55 53 53 52 52 54 56 53 50 51 54 53 53 56 58 57 56 57 59 61 61 60 59 59 58 55 53 51 51 52 52 53 53 53 54 55 56 58 59 59 58 57 57 56 54 51 52 54 55 56 56 54 51 48 44
22 20 19 20 23 25 26 27 28 30 33 34 38 44 42 37 35 37 38 38 38 39 39 40 42 44 48 52 56 56 55 55 54 53 51 52 56 56 52 49 50 51 51 53 56 56 55 55 57 59 60 59 58 58 58 56 53 51 50 51 51 52 53 53 55 56 58 61 62 63 62 62 61 59 56 53 53 53 55 58 61 62 61 59 56
24 22 20 20 22 25 26 27 28 30 33 35 38 43 42 38 36 37 39 39 39 39 39 39 41 43 47 50 53 55 55 54 53 52 52 54 57 61 58 52 49 50 51 52 54 55 54 53 55 58 59 59 58 57 57 55 51 49 49 50 51 53 54 54 56 57 59 61 62 64 65 66 65 62 58 56 55 55 55 57 60 63 66 68 69
26 24 21 20 23 25 27 27 27 30 34 35 37 42 43 39 37 38 39 39 40 40 38 38 39 41 44 46 49 51 52 52 53 54 54 55 58 62 63 60 54 51 52 52 54 55 54 53 54 56 58 59 59 58 56 54 51 50 50 51 51 53 55 57 58 59 60 59 60 61 64 67 67 65 62 59 58 58 58 59 60 62 65 69 72
27 25 22 21 23 25 27 27 26 29 34 36 38 42 43 40 38 38 38 40 41 40 39 38 38 39 41 43 45 46 48 51 53 55 56 57 58 59 62 63 60 56 54 53 55 58 58 56 55 56 58 59 58 56 53 51 50 51 53 52 52 53 54 57 59 61 61 60 59 60 61 64 65 63 61 60 60 61 61 61 62 63 66 69 71
27 26 24 22 23 26 27 28 27 29 33 36 38 41 42 41 40 39 39 41 42 42 40 39 38 39 39 41 42 43 45 49 52 55 58 60 59 58 59 60 60 59 56 54 55 58 59 58 56 55 56 54 52 51 50 50 51 52 53 52 52 52 52 55 60 63 64 63 62 61 61 62 62 61 60 60 62 61 61 60 60 61 65 68 69
27 27 25 23 24 26 27 27 28 29 32 36 38 40 41 41 41 40 41 42 42 43 42 40 40 39 39 40 41 42 44 47 52 55 58 59 60 58 59 60 59 57 55 54 55 56 58 59 57 56 53 50 48 48 48 50 52 54 53 53 54 55 54 56 61 65 67 67 66 64 64 62 60 60 61 62 62 60 57 55 54 56 61 64 65
26 26 26 25 25 27 27 27 29 30 32 35 38 39 40 40 40 41 42 42 42 43 43 42 41 40 40 40 41 43 44 47 51 54 56 58 59 59 61 62 60 57 55 54 54 55 57 60 60 59 55 50 48 47 47 49 52 53 54 53 55 58 58 57 60 63 66 67 67 66 67 66 62 61 62 63 61 58 54 54 55 57 58 61 62
23 24 25 25 26 28 28 28 29 30 32 34 36 38 39 40 40 41 43 44 44 44 44 42 41 41 41 42 44 44 45 49 52 54 57 60 58 58 61 62 61 60 59 58 57 56 57 60 62 61 56 51 48 46 47 48 50 52 54 56 56 57 55 55 57 61 62 63 64 65 66 67 66 64 63 64 62 59 57 58 60 60 60 61 61
20 21 21 23 24 27 29 29 30 30 31 33 35 37 38 39 40 41 43 44 46 45 43 42 42 42 43 44 46 47 48 52 54 56 61 66 62 58 59 60 60 60 61 63 61 58 57 58 61 60 55 50 47 46 49 51 53 55 55 56 55 53 53 54 57 60 61 62 63 64 66 68 68 67 68 68 65 60 58 58 57 56 56 55 55
22 21 21 22 24 26 28 29 30 30 31 32 33 35 37 38 40 41 42 44 47 47 44 42 42 43 44 46 48 49 50 53 55 58 63 67 66 63 63 63 60 56 58 63 63 59 57 58 59 58 54 50 48 48 49 53 57 58 56 53 51 51 52 53 54 57 59 61 63 64 65 67 69 70 69 65 61 58 56 54 52 51 49 47 46
24 24 24 25 27 28 28 29 29 30 29 30 32 35 36 37 39 40 41 43 46 47 45 43 42 43 45 47 49 52 53 54 57 59 62 65 65 65 67 68 65 58 56 61 62 59 58 58 58 57 55 52 51 50 50 52 55 55 53 51 51 51 51 50 52 55 57 60 62 63 64 66 67 64 59 55 52 50 48 46 45 44 44 44 44
28 26 25 26 28 29 29 29 29 28 28 29 32 35 36 36 38 39 40 42 44 46 45 43 43 43 44 45 49 54 56 57 58 59 62 64 64 64 65 67 68 62 56 59 63 61 59 57 57 56 55 53 52 52 51 51 52 52 51 51 50 50 49 49 51 56 59 60 62 61 60 59 56 51 46 44 43 40 37 36 36 36 37 38 38
33 30 27 26 27 29 29 28 27 27 26 28 31 34 35 36 36 37 39 41 43 44 43 43 43 44 44 44 49 57 59 59 58 59 61 63 64 64 63 63 65 62 56 57 63 62 58 57 56 56 55 54 54 53 52 50 50 51 51 50 48 47 48 47 51 57 59 57 55 52 49 46 43 39 37 36 35 33 33 33 33 34 34 34 35
36 34 31 28 27 28 29 28 26 25 25 26 29 33 35 35 34 35 37 39 42 43 41 41 43 44 45 45 50 58 62 61 59 58 60 63 64 64 63 62 63 61 58 59 63 63 59 57 57 56 55 55 55 53 51 49 50 50 49 47 46 46 48 50 52 54 53 48 44 42 39 37 36 35 34 34 33 31 29 28 27 27 27 28 28
37 36 34 33 30 28 28 27 26 25 24 25 27 31 34 35 34 34 36 38 40 41 40 40 42 44 45 45 50 58 63 63 61 59 59 61 63 64 64 62 63 64 63 64 66 65 60 57 56 56 55 54 52 50 49 48 49 48 46 45 45 47 48 49 48 47 44 40 37 35 35 34 34 34 33 31 29 26 24 22 20 20 20 21 23
40 37 36 35 34 32 29 28 26 25 23 24 26 28 31 34 34 34 34 36 39 40 40 40 42 44 44 45 50 58 64 66 64 60 58 59 61 63 63 62 63 65 66 66 66 64 60 57 57 56 54 51 48 47 47 47 47 46 44 43 44 45 46 47 46 43 40 37 33 32 33 34 33 32 30 27 24 23 22 20 19 19 21 23 25
42 40 38 37 36 34 32 30 28 25 24 24 25 27 29 32 34 34 34 35 38 40 41 41 42 43 44 46 50 57 64 68 67 62 58 57 60 61 62 61 61 63 65 66 64 62 60 58 56 54 51 47 45 46 46 45 44 43 42 43 45 45 46 46 43 39 38 36 33 31 30 30 29 29 28 25 23 22 21 19 20 23 25 27 28
45 43 42 40 38 36 35 32 30 28 26 24 25 26 28 30 32 33 33 35 38 40 41 41 43 44 45 47 51 57 63 67 67 63 59 58 60 61 61 60 58 59 63 66 64 61 59 57 53 49 46 45 44 43 42 41 40 41 41 43 45 44 42 40 37 35 35 35 33 28 25 26 28 29 28 24 21 21 21 19 20 23 25 26 28
48 47 46 44 41 38 36 35 33 31 29 26 24 25 27 28 31 33 33 35 38 40 41 42 43 45 46 48 52 58 63 66 65 62 59 59 60 61 61 59 56 57 63 66 64 61 58 54 49 46 44 42 41 39 38 39 40 40 38 37 37 36 35 34 35 34 32 31 29 24 22 25 28 28 27 24 21 23 24 22 20 20 22 25 27
48 48 49 48 44 41 39 38 35 33 32 30 27 26 26 27 30 33 34 35 37 39 42 43 44 45 47 50 54 58 62 64 65 62 59 59 60 61 60 59 56 57 63 67 64 59 54 50 46 44 42 39 37 37 38 39 39 36 33 31 29 28 28 30 33 32 29 27 26 22 21 25 27 26 25 25 25 24 22 22 21 20 21 22 25